Tracking 31027 objects as of 19-Jul-2025
HD Live streaming from Space Station
objects crossing your sky now

SL-8 R/B

Track SL-8 R/B now!
10-day predictions


NORAD ID: 28910
Int'l Code: 2005-048C
Perigee: 1,436.8 km
Apogee: 1,465.1 km
Inclination: 82.5 °
Period: 114.7 minutes
Semi major axis: 7821 km
RCS: 8.4237 m2 (large)
Launch date: December 21, 2005
Source: Commonwealth of Independent States (former USSR) (CIS)
Launch site: PLESETSK MISSILE AND SPACE COMPLEX (PKMTR)

Note: This is a ROCKET BODY
Your satellite tracking list
MAROC TUBSAT
Track 1 satellite(s)




NASA's NSSDC Master Catalog

Two Line Element Set (TLE):
1 28910U 05048C   25199.67421741 -.00000026  00000-0 -22240-3 0  9998
2 28910  82.4683 165.8633 0018111 121.0367  52.1848 12.54955748896569
Source of the keplerian elements: AFSPC